When you browse on this site, cookies collect data to enhance your experience and personalize the content and advertising you see.
Visit our Privacy Policy to learn more. By continuing to use the site, you agree to this use of cookies and data.
  • In Sweden
  • List of Countries
  • For 7 days
  • Water Temperature
  • Weather Map
  • Weather Widgets
  • user-avatar
    Login

    Hourly Weather Piganovichi

    Today, 24 February, Monday

    Time Temperature Precipitation Wind Pressure Humidity
    00:00 +3°C° 0.5 mm 2 mps 734 mmHg 90%
    01:00 +2°C° 0.5 mm 3 mps 733 mmHg 93%
    02:00 +1°C° 0 mm 3 mps 732 mmHg 95%
    03:00 0°C° 0.2 mm 4 mps 733 mmHg 92%
    04:00 +1°C° 0.2 mm 5 mps 734 mmHg 89%
    05:00 +1°C° 0.2 mm 6 mps 734 mmHg 86%
    06:00 0°C° 0.3 mm 7 mps 735 mmHg 89%
    07:00 -1°C° 0.3 mm 7 mps 737 mmHg 91%
    08:00 -1°C° 0 mm 8 mps 739 mmHg 92%
    09:00 0°C° 0.1 mm 8 mps 739 mmHg 90%
    10:00 0°C° 0.1 mm 8 mps 740 mmHg 87%
    11:00 0°C° 0.1 mm 9 mps 741 mmHg 85%
    12:00 +1°C° 0 mm 9 mps 741 mmHg 73%
    13:00 +3°C° 0 mm 9 mps 742 mmHg 61%
    14:00 +5°C° 0 mm 9 mps 742 mmHg 49%
    15:00 +4°C° 0 mm 8 mps 743 mmHg 51%
    16:00 +4°C° 0 mm 7 mps 743 mmHg 53%
    17:00 +4°C° 0 mm 6 mps 744 mmHg 55%
    18:00 +3°C° 0 mm 5 mps 744 mmHg 61%
    19:00 +2°C° 0 mm 5 mps 744 mmHg 66%
    20:00 +1°C° 0 mm 4 mps 745 mmHg 72%
    21:00 0°C° 0 mm 4 mps 745 mmHg 74%
    22:00 0°C° 0 mm 4 mps 745 mmHg 76%
    23:00 +1°C° 0 mm 3 mps 745 mmHg 77%

    Tomorrow, 25 February, Tuesday

    Time Temperature Precipitation Wind Pressure Humidity
    00:00 +1°C° 0 mm 3 mps 744 mmHg 80%
    01:00 0°C° 0 mm 3 mps 744 mmHg 83%
    02:00 0°C° 0 mm 3 mps 744 mmHg 86%
    03:00 0°C° 0 mm 3 mps 743 mmHg 87%
    04:00 0°C° 0 mm 3 mps 742 mmHg 88%
    05:00 0°C° 0 mm 3 mps 741 mmHg 89%
    06:00 -1°C° 0.2 mm 4 mps 740 mmHg 91%
    07:00 -1°C° 0.2 mm 5 mps 740 mmHg 93%
    08:00 -1°C° 0.2 mm 5 mps 739 mmHg 96%
    09:00 -1°C° 0.1 mm 5 mps 738 mmHg 96%
    10:00 -1°C° 0.1 mm 5 mps 738 mmHg 96%
    11:00 0°C° 0.1 mm 5 mps 737 mmHg 96%
    12:00 +1°C° 0.2 mm 5 mps 737 mmHg 95%
    13:00 +1°C° 0.2 mm 5 mps 736 mmHg 94%
    14:00 +3°C° 0.2 mm 4 mps 736 mmHg 94%
    15:00 +4°C° 0.3 mm 4 mps 735 mmHg 93%
    16:00 +5°C° 0.3 mm 5 mps 735 mmHg 93%
    17:00 +5°C° 0.3 mm 5 mps 735 mmHg 93%
    18:00 +5°C° 0.1 mm 5 mps 734 mmHg 93%
    19:00 +5°C° 0.1 mm 5 mps 734 mmHg 93%
    20:00 +5°C° 0.1 mm 5 mps 734 mmHg 92%
    21:00 +5°C° 0.3 mm 5 mps 734 mmHg 92%
    22:00 +5°C° 0.3 mm 5 mps 733 mmHg 92%
    23:00 +4°C° 0.3 mm 6 mps 733 mmHg 92%

    Day after tomorrow, 26 February, Wednesday

    Time Temperature Precipitation Wind Pressure Humidity
    00:00 +4°C° 0.6 mm 6 mps 733 mmHg 92%
    01:00 +4°C° 0.6 mm 6 mps 732 mmHg 92%
    02:00 +4°C° 0.6 mm 6 mps 732 mmHg 92%
    03:00 +3°C° 0.1 mm 5 mps 732 mmHg 89%
    04:00 +4°C° 0.1 mm 4 mps 732 mmHg 86%
    05:00 +3°C° 0.1 mm 3 mps 732 mmHg 83%
    06:00 +2°C° 0 mm 3 mps 732 mmHg 85%
    07:00 +2°C° 0 mm 3 mps 732 mmHg 87%
    08:00 +2°C° 0 mm 2 mps 732 mmHg 89%
    09:00 +3°C° 0 mm 2 mps 732 mmHg 81%
    10:00 +4°C° 0 mm 2 mps 731 mmHg 73%
    11:00 +5°C° 0 mm 2 mps 731 mmHg 64%
    12:00 +6°C° 0 mm 2 mps 731 mmHg 62%
    13:00 +6°C° 0 mm 2 mps 731 mmHg 60%
    14:00 +7°C° 0 mm 3 mps 731 mmHg 58%
    15:00 +5°C° 0 mm 3 mps 730 mmHg 64%
    16:00 +6°C° 0 mm 2 mps 730 mmHg 69%
    17:00 +6°C° 0 mm 2 mps 730 mmHg 74%
    18:00 +5°C° 0 mm 2 mps 730 mmHg 80%
    19:00 +4°C° 0 mm 3 mps 730 mmHg 85%
    20:00 +3°C° 0 mm 3 mps 730 mmHg 90%
    21:00 +4°C° 0.1 mm 2 mps 730 mmHg 91%
    22:00 +4°C° 0.1 mm 2 mps 730 mmHg 92%
    23:00 +4°C° 0.1 mm 2 mps 730 mmHg 93%

    27 February, Thursday

    Time Temperature Precipitation Wind Pressure Humidity
    00:00 +4°C° 0 mm 2 mps 730 mmHg 93%
    01:00 +3°C° 0 mm 2 mps 730 mmHg 93%
    02:00 +3°C° 0 mm 2 mps 731 mmHg 93%
    03:00 +2°C° 0.1 mm 3 mps 730 mmHg 91%
    04:00 +1°C° 0.1 mm 4 mps 730 mmHg 89%
    05:00 0°C° 0.1 mm 5 mps 730 mmHg 87%
    06:00 0°C° 0 mm 5 mps 731 mmHg 89%
    07:00 0°C° 0 mm 5 mps 731 mmHg 91%
    08:00 -1°C° 0 mm 5 mps 731 mmHg 92%
    09:00 -1°C° 0.1 mm 5 mps 732 mmHg 89%
    10:00 0°C° 0.1 mm 5 mps 732 mmHg 87%
    11:00 0°C° 0.1 mm 5 mps 733 mmHg 84%
    12:00 0°C° 0.2 mm 5 mps 733 mmHg 83%
    13:00 0°C° 0.2 mm 5 mps 734 mmHg 81%
    14:00 0°C° 0.2 mm 5 mps 734 mmHg 80%
    15:00 0°C° 0.1 mm 5 mps 734 mmHg 75%
    16:00 0°C° 0.1 mm 5 mps 735 mmHg 69%
    17:00 0°C° 0.1 mm 5 mps 735 mmHg 64%
    18:00 -1°C° 0 mm 4 mps 735 mmHg 66%
    19:00 -1°C° 0 mm 4 mps 736 mmHg 68%
    20:00 -1°C° 0 mm 3 mps 736 mmHg 69%
    21:00 -1°C° 0 mm 3 mps 736 mmHg 69%
    22:00 -2°C° 0 mm 3 mps 737 mmHg 69%
    23:00 -2°C° 0 mm 3 mps 737 mmHg 68%

    28 February, Friday

    Time Temperature Precipitation Wind Pressure Humidity
    00:00 -2°C° 0 mm 3 mps 737 mmHg 69%
    01:00 -3°C° 0 mm 4 mps 737 mmHg 70%
    02:00 -4°C° 0 mm 4 mps 737 mmHg 71%
    03:00 -4°C° 0 mm 4 mps 737 mmHg 72%
    04:00 -4°C° 0 mm 4 mps 737 mmHg 74%
    05:00 -4°C° 0 mm 4 mps 737 mmHg 76%
    06:00 -5°C° 0 mm 5 mps 738 mmHg 74%
    07:00 -5°C° 0 mm 5 mps 738 mmHg 73%
    08:00 -5°C° 0 mm 6 mps 738 mmHg 72%
    09:00 -4°C° 0 mm 6 mps 738 mmHg 64%
    10:00 -4°C° 0 mm 7 mps 739 mmHg 56%
    11:00 -4°C° 0 mm 8 mps 739 mmHg 48%
    12:00 -2°C° 0 mm 8 mps 739 mmHg 49%
    13:00 -2°C° 0 mm 8 mps 739 mmHg 51%
    14:00 -3°C° 0 mm 9 mps 739 mmHg 53%
    15:00 -2°C° 0.1 mm 8 mps 740 mmHg 56%
    16:00 -2°C° 0.1 mm 8 mps 740 mmHg 58%
    17:00 -2°C° 0.1 mm 8 mps 740 mmHg 60%
    18:00 -3°C° 0 mm 7 mps 741 mmHg 60%
    19:00 -4°C° 0 mm 6 mps 741 mmHg 60%
    20:00 -4°C° 0 mm 5 mps 742 mmHg 60%
    21:00 -5°C° 0 mm 5 mps 742 mmHg 61%
    22:00 -5°C° 0 mm 5 mps 742 mmHg 62%
    23:00 -5°C° 0 mm 5 mps 742 mmHg 63%

    29 February, Saturday

    Time Temperature Precipitation Wind Pressure Humidity
    00:00 -5°C° 0 mm 6 mps 743 mmHg 62%
    01:00 -5°C° 0 mm 6 mps 743 mmHg 62%
    02:00 -5°C° 0 mm 6 mps 743 mmHg 62%
    03:00 -5°C° 0 mm 6 mps 743 mmHg 63%
    04:00 -6°C° 0 mm 5 mps 743 mmHg 65%
    05:00 -6°C° 0 mm 5 mps 742 mmHg 66%
    06:00 -6°C° 0 mm 5 mps 742 mmHg 68%
    07:00 -5°C° 0 mm 4 mps 742 mmHg 70%
    08:00 -5°C° 0 mm 4 mps 742 mmHg 72%
    09:00 -4°C° 0 mm 4 mps 742 mmHg 66%
    10:00 -2°C° 0 mm 3 mps 742 mmHg 60%
    11:00 -1°C° 0 mm 3 mps 742 mmHg 54%
    12:00 0°C° 0 mm 3 mps 741 mmHg 51%
    13:00 0°C° 0 mm 3 mps 741 mmHg 48%
    14:00 0°C° 0 mm 3 mps 740 mmHg 45%
    15:00 0°C° 0 mm 3 mps 739 mmHg 47%
    16:00 0°C° 0 mm 3 mps 739 mmHg 49%
    17:00 0°C° 0 mm 3 mps 738 mmHg 52%
    18:00 -2°C° 0 mm 4 mps 738 mmHg 62%
    19:00 -2°C° 0 mm 4 mps 737 mmHg 72%
    20:00 -4°C° 0 mm 5 mps 737 mmHg 82%
    21:00 -2°C° 0.1 mm 5 mps 736 mmHg 87%
    22:00 -2°C° 0.1 mm 5 mps 735 mmHg 91%
    23:00 -3°C° 0.1 mm 6 mps 734 mmHg 96%
    Show more